This is the latest recevied weather packets stored in our database for station/object DL1GHN-6. If no packets are shown the sender has not sent any weather packets the latest 1 day(s).
| Time | Temp. | Humidity | Pressure | Rain* | Wind** | Luminosity | Snow |
|---|---|---|---|---|---|---|---|
| 1778009117 | 14.44° C | 86% | 1007.9 hPa | 0 mm | 1.34 m/s, 171° | 0 W/m² | - |
| 1778008818 | 14.44° C | 87% | 1007.8 hPa | 0 mm | 2.24 m/s, 155° | 0 W/m² | - |
| 1778008519 | 14.44° C | 87% | 1007.8 hPa | 0 mm | 1.34 m/s, 183° | 0 W/m² | - |
| 1778008218 | 14.44° C | 87% | 1007.6 hPa | 0 mm | 1.34 m/s, 189° | 0 W/m² | - |
| 1778007918 | 14.44° C | 87% | 1007.6 hPa | 0 mm | 0.89 m/s, 164° | 0 W/m² | - |
| 1778007618 | 14.44° C | 87% | 1007.6 hPa | 0 mm | 0.45 m/s, 165° | 0 W/m² | - |
| 1778007319 | 14.44° C | 87% | 1007.6 hPa | 0 mm | 0.45 m/s, 165° | 0 W/m² | - |
| 1778007017 | 14.44° C | 86% | 1007.6 hPa | 0 mm | 0.89 m/s, 150° | 0 W/m² | - |
| 1778006717 | 14.44° C | 86% | 1007.6 hPa | 0 mm | 0.45 m/s, 147° | 0 W/m² | - |
| 1778006418 | 14.44° C | 86% | 1007.6 hPa | 0 mm | 0 m/s | 0 W/m² | - |
| 1778006117 | 14.44° C | 86% | 1007.6 hPa | 0 mm | 0.89 m/s, 199° | 0 W/m² | - |
| 1778005818 | 14.44° C | 86% | 1007.6 hPa | 0 mm | 0.89 m/s, 184° | 5 W/m² | - |
| 1778005517 | 14.44° C | 87% | 1007.5 hPa | 0 mm | 1.34 m/s, 160° | 7 W/m² | - |
| 1778005217 | 14.44° C | 87% | 1007.4 hPa | 0 mm | 0.89 m/s, 172° | 9 W/m² | - |
| 1778004917 | 14.44° C | 87% | 1007.3 hPa | 0 mm | 0.45 m/s, 169° | 12 W/m² | - |
| 1778004617 | 14.44° C | 87% | 1007.2 hPa | 0 mm | 0 m/s | 14 W/m² | - |
| 1778004317 | 14.44° C | 86% | 1007.3 hPa | 0 mm | 0.45 m/s, 144° | 14 W/m² | - |
| 1778004021 | 15° C | 86% | 1007.4 hPa | 0 mm | 0.45 m/s, 183° | 14 W/m² | - |
| 1778003718 | 15° C | 86% | 1007.3 hPa | 0 mm | 0 m/s | 23 W/m² | - |
| 1778003417 | 15° C | 86% | 1007.3 hPa | 0 mm | 0.89 m/s, 188° | 35 W/m² | - |
| 1778003118 | 15° C | 87% | 1007.4 hPa | 0 mm | 1.34 m/s, 184° | 49 W/m² | - |
| 1778002817 | 15° C | 87% | 1007.4 hPa | 0 mm | 0.89 m/s, 186° | 49 W/m² | - |
| 1778002519 | 15° C | 87% | 1007.4 hPa | 0 mm | 0.89 m/s, 244° | 49 W/m² | - |
| 1778002219 | 15° C | 87% | 1007.5 hPa | 0 mm | 0.89 m/s, 212° | 54 W/m² | - |
| 1778001919 | 14.44° C | 87% | 1007.5 hPa | 0 mm | 1.34 m/s, 190° | 58 W/m² | - |
* Rain latest hour (hover to see other rain measurements)
** Current wind speed in m/s (hover to see current wind gust speed)